DELTA 1 DEB

Satellite information

Favourite Embed

Satellite Type and Status

DEBRISIN ORBIT

Key statistics

Satellite DELTA 1 DEB at a glance.

Uptime

18815

Days in orbit

Revolutions

≈ 12.5

Per day

Orbit

SSO

Sun Synchronous Orbit

Inclination

101.9

Latest

Satellite identification and parameters

Extended collection of information and parameters for DELTA 1 DEB.

Object identification

Identified? True

Debris? True

Object name: DELTA 1 DEB

International designator: 1973-086HM

Object number (NORAD): 42573

Object ID (CCSDS): 42573

Country: UNITED STATES OF AMERICA (US)

Current information (Y/N): Y

RCS size: SMALL

Orbital parameters

Period: 115.556 minutes

Inclination: 101.909 deg

SMA: 7858.771 km

Apoapsis: 1510.269 km

Periapsis: 1451.003 km

RAAN: 232.8573 deg

Eccentricy: 0.0037707

Argument of periapsis: 39.9023 deg

Mean anomaly: 346.6833 deg

Mean motion: 12.46151492 rev/day

Mean motion (dot): 0.00000076 rev/day2

B* drag term: 0.00083536 1/REarth

Two-line elements (TLE)

Creation date: May 11, 2025, 10:21 p.m.

Reference frame: TEME

Reference center: EARTH

Epoch: May 11, 2025, 6:40 a.m. UTC

TLE line 0: 0 DELTA 1 DEB

TLE line 1: 1 42573U 73086HM 25131.27828691 .00000076 00000-0 83536-3 0 9991

TLE line 2: 2 42573 101.9090 232.8573 0037707 39.9023 346.6833 12.46151492521335

Live tracking on map

Real-time ground track for satellite DELTA 1 DEB.

In-orbit conjunctions

A list of the most updated potential collisions computed for object DELTA 1 DEB.

Target Orbit TCA Probability of collision Miss distance Type
COSMOS 1287 LEO 2024-11-08 03:46:23 0.000269961 358.0 (m) PAYLOAD
DELTA 1 DEB SSO 2024-09-25 16:32:31 0.0003584092 504.0 (m) DEBRIS
BREEZE-KM R/B LEO 2024-09-07 11:08:09 0.0001021662 260.0 (m) ROCKET BODY

Associated space launch

Meteorological satellite using radiometric imaging

DELTA 1 DEB was lifted into orbit during the mission ‘Delta 0300 | NOAA 3’, on board a Delta 0300 space rocket.

The launch took place on Nov. 6, 1973, 5:02 p.m. from Space Launch Complex 2W.

For more information about the launch, click the button.

Launch to space Delta 0300 | NOAA 3
Delta 0300 | NOAA 3

Agency: N/A

Status: Launch Successful

Launch date: Nov. 6, 1973, 5:02 p.m. UTC

Rocket: Delta 0300

Launch pad: Space Launch Complex 2W

Location: Vandenberg SFB, CA, USA

...

Latest news about this satellite

There are no fresh news available about this satellite. Check back as we update our databases every day.


Newsletter sign-up

Weekly statistics, charts and insights to help you stay on top of the space industry.